Location: Marcé
(47.5801°N, 0.3280°W)
Time: 21:44:11
(UTC+01:00)

Transit 2A - Pass Details

Date: 30 November 2021
Orbit: 591 x 967 km, 66.7° (Epoch: 23 January)

Event Time Altitude Azimuth Distance (km) Brightness Sun altitude
Rises 07:08:22 0° 316° (NW) 3,587 - -12.9°
Exits shadow 07:10:56 - 330° (NNW) 2,955 8.6 -12.4°
Reaches altitude 10° 07:12:20 10° 341° (NNW) 2,686 8.5 -12.2°
Maximum altitude 07:15:34 14° 12° (NNE) 2,412 8.5 -11.7°
Drops below altitude 10° 07:18:50 10° 43° (NE) 2,714 9.1 -11.2°
Sets 07:22:52 0° 67° (ENE) 3,649 10.3 -10.6°
